Weather History for KRCA - September, 2013

Change the Weather History Date:

Thursday, September 5, 2013

  Actual Average Record
Temperature  
Mean Temperature 77 °F -  
Max Temperature 89 °F 79 °F 100 °F (2001)
Min Temperature 66 °F 53 °F 37 °F (1999)
Cooling Degree Days 12    
Growing Degree Days 27 (Base 50)    
Moisture  
Dew Point 63 °F    
Average Humidity 58    
Maximum Humidity 88    
Minimum Humidity 41    
Precipitation  
Precipitation 0.00 in - - ()
Sea Level Pressure  
Sea Level Pressure 30.02 in    
Wind  
Wind Speed 8 mph (SSE)    
Max Wind Speed 18 mph    
Max Gust Speed 22 mph    
Visibility 10 miles    
Events      
Averages and records for this station are not official NWS values.
T = Trace of Precipitation, MM = Missing Value Source: NWS Daily Summary

Daily Weather History Graph

Daily Weather History Graph

Search for Another Location

Airport or City:

Trip Planner

Search our weather history database for the weather conditions in past years. The results will help you decide how hot, cold, wet, or windy it might be!

Date:

Astronomy

Sep. 05, 2013 Rise Set
Actual Time 6:20 AM MDT 7:20 PM MDT
Civil Twilight 5:50 AM MDT 7:50 PM MDT
Nautical Twilight 5:15 AM MDT 8:25 PM MDT
Astronomical Twilight 4:38 AM MDT 9:02 PM MDT
Moon 6:36 AM MDT (9/5) 7:10 PM MDT (9/5)
Length of Visible Light 13h 59m
Length of Day
13h 00m
New Moon, 0% of the Moon is Illuminated
Sep 5
New Moon
Sep 12
First Quarter
Sep 19
Full
Sep 26
Last Quarter
Oct 4
New

Hourly Weather History & Observations

Time (MDT) Temp. Heat Index Dew Point Humidity Pressure Visibility Wind Dir Wind Speed Gust Speed Precip Events Conditions
12:58 AM 73.4 °F - 63.1 °F 70% 30.02 in 10.0 mi SE 5.8 mph - N/A   Mostly Cloudy
1:58 AM 72.9 °F - 62.6 °F 70% 30.03 in 10.0 mi North 3.5 mph - N/A   Scattered Clouds
2:58 AM 72.0 °F - 62.6 °F 72% 30.05 in 10.0 mi North 10.4 mph - N/A   Scattered Clouds
3:58 AM 72.3 °F - 63.7 °F 74% 30.06 in 10.0 mi North 15.0 mph - N/A   Clear
4:58 AM 70.2 °F - 63.9 °F 80% 30.06 in 10.0 mi NNW 13.8 mph - N/A   Clear
5:58 AM 66.9 °F - 63.0 °F 87% 30.07 in 10.0 mi SW 2.3 mph - N/A   Clear
6:58 AM 66.2 °F - 62.6 °F 88% 30.06 in 10.0 mi WNW 5.8 mph - N/A   Clear
7:58 AM 71.2 °F - 62.6 °F 74% 30.06 in 10.0 mi SW 4.6 mph - N/A   Clear
8:55 AM 78.8 °F - 62.6 °F 57% 30.13 in 10.0 mi South 8.1 mph - N/A   Clear
9:55 AM 80.6 °F 81.5 °F 60.8 °F 51% 30.13 in 10.0 mi South 11.5 mph - N/A   Clear
10:55 AM 84.2 °F 84.4 °F 60.8 °F 45% 30.13 in 10.0 mi South 12.7 mph - N/A   Clear
11:58 AM 87.3 °F 88.0 °F 62.8 °F 44% 30.03 in 10.0 mi SSE 15.0 mph 21.9 mph N/A   Clear
12:21 PM 87.8 °F 88.5 °F 62.6 °F 43% 30.10 in 10.0 mi South 18.4 mph 21.9 mph N/A   Clear
12:58 PM 88.3 °F 89.2 °F 63.0 °F 43% 30.01 in 10.0 mi SSE 10.4 mph 21.9 mph N/A   Clear
1:58 PM 88.5 °F 88.9 °F 61.9 °F 41% 29.99 in 10.0 mi SSE 15.0 mph - N/A   Clear
2:58 PM 86.4 °F 87.0 °F 62.6 °F 45% 29.99 in 10.0 mi SSE 9.2 mph - N/A   Mostly Cloudy
3:58 PM 85.6 °F 86.8 °F 63.7 °F 48% 29.96 in 10.0 mi SE 8.1 mph - N/A   Scattered Clouds
4:58 PM 87.1 °F 88.3 °F 64.0 °F 46% 29.96 in 10.0 mi East 4.6 mph - N/A   Mostly Cloudy
5:58 PM 88.3 °F 89.2 °F 63.1 °F 43% 29.94 in 10.0 mi East 8.1 mph - N/A   Partly Cloudy
6:58 PM 88.7 °F 89.1 °F 62.4 °F 41% 29.93 in 10.0 mi East 9.2 mph - N/A   Clear
7:58 PM 84.9 °F 85.4 °F 62.1 °F 46% 29.94 in 10.0 mi East 8.1 mph - N/A   Clear
8:58 PM 80.8 °F 81.9 °F 62.1 °F 53% 30.01 in 10.0 mi ESE 13.8 mph - N/A   Clear
9:58 PM 77.7 °F - 62.1 °F 58% 30.00 in 10.0 mi South 4.6 mph - N/A   Clear
10:58 PM 77.0 °F - 62.6 °F 61% 30.00 in 10.0 mi SSW 4.6 mph - N/A   Clear
11:58 PM 74.8 °F - 62.2 °F 65% 29.90 in 10.0 mi South 2.3 mph - N/A   Clear